Regional Weather Roundup
Issued by NWS

Home | Current Version | Previous Version | Graphics & Text | Print | Product List | Glossary On
Versions: 1 2 3 4 5 6 7 8 9 10 11 12 13 14 15 16 17 18 19 20 21 22 23 24 25 26 27 28 29
000
ASUS45 KGTF 171410
RWRMT
MONTANA HOURLY WEATHER ROUNDUP
NATIONAL WEATHER SERVICE GREAT FALLS MT
800 AM MDT FRI APR 17 2015

NOTE: "FAIR" INDICATES FEW OR NO CLOUDS BELOW 12000 FEET WITH NO
SIGNIFICANT WEATHER AND/OR OBSTRUCTIONS TO VISIBILITY.

MTZ001>007-043-171500-
WEST OF THE DIVIDE

CITY           SKY/WX    TMP DP  RH WIND       PRES   REMARKS
KALISPELL      SUNNY     34  29  82 CALM      30.24R
MISSOULA       SUNNY     35  28  75 SE6       30.28S WCI  30
BUTTE          SUNNY     25  21  85 CALM      30.27R
DEER LODGE       N/A     34  25  69 CALM      30.31R
EUREKA           N/A     34  30  86 CALM      30.27S
HAMILTON         N/A     37  25  60 S8        30.27R WCI  31
LIBBY            N/A     32  28  86 CALM      30.27S
$$

MTZ008-052>055-171500-
SOUTHWEST MONTANA

CITY           SKY/WX    TMP DP  RH WIND       PRES   REMARKS
BOZEMAN        SUNNY     31  26  82 E6        30.27R WCI  25
DILLON         SUNNY     31  24  75 S8        30.25R WCI  23
$$

MTZ009-010-012-014-046-048-049-054-171500-
EAST SLOPES AND CENTRAL MONTANA

CITY           SKY/WX    TMP DP  RH WIND       PRES   REMARKS
CUT BANK       SUNNY     39  27  62 NW13      30.21S WCI  31
GREAT FALLS    SUNNY     42  28  57 SW12      30.20S
MALMSTROM AFB  SUNNY     43  28  56 W9        30.21R
HELENA         SUNNY     35  26  69 CALM      30.26R
$$

MTZ011-013-016-021-045-047-050-051-171500-
NORTH CENTRAL MONTANA

CITY           SKY/WX    TMP DP  RH WIND       PRES   REMARKS
HAVRE          SUNNY     40  32  73 CALM      30.21R
LEWISTOWN      SUNNY     38  28  67 E5        30.20S
FORT BENTON      N/A     43  28  56 SW7       30.21R
$$

MTZ017>020-022>042-056>058-061-062-171500-
EASTERN PLAINS

CITY           SKY/WX    TMP DP  RH WIND       PRES   REMARKS
BAKER          SUNNY     39  31  72 CALM      30.23S
BILLINGS       SUNNY     37  29  72 SW10      30.22R WCI  30
GLASGOW        SUNNY     45  29  53 SE3       30.18R
LIVINGSTON     SUNNY     32  25  75 VRB5      30.24R
MILES CITY     SUNNY     37  25  61 S3        30.23R
SIDNEY         SUNNY     39  25  56 S8        30.21R
WOLF POINT     SUNNY     39  28  64 MISG      30.20R
BIG TIMBER       N/A     36  27  69 W7        30.24S WCI  30
FORSYTH          N/A     43  32  65 CALM      30.22S
PLENTYWOOD       N/A     45  23  42 W5        30.16S
POPLAR           N/A     41  27  56 SW5       30.21R
$$

REGIONAL REPORTS...DAKOTAS

CITY           SKY/WX    TMP DP  RH WIND       PRES   REMARKS
WILLISTON      SUNNY     42  25  50 S7        30.18R
MINOT          SUNNY     50  21  32 SW14      30.13S
DICKINSON      SUNNY     48  28  46 W7        30.19S
BEACH          FAIR      46  25  42 CALM      30.23R
CROSBY         FAIR      50  23  34 NW15      30.15S
WATFORD CITY   FAIR      43  23  45 SW9       30.18R
BISMARCK       SUNNY     42  26  53 CALM      30.20F
GRAND FORKS    SUNNY     52  29  41 W9        30.12F
FARGO          SUNNY     49  27  42 S5        30.17S
BUFFALO SD       N/A     45  27  49 CALM      30.16R
RAPID CITY     PTSUNNY   49  30  48 N9        30.22R
$$

REGIONAL REPORTS...WYOMING/IDAHO/WASHINGTON

CITY           SKY/WX    TMP DP  RH WIND       PRES   REMARKS
GILLETTE       MOSUNNY   39  28  64 CALM      30.22R
SHERIDAN       MOSUNNY   36  29  75 CALM      30.23R
BUFFALO WY     MOSUNNY   44  28  53 CALM      30.22R
CODY           MOSUNNY   37  27  65 W3        30.23S
YELLOWSTONE LA   N/A     24  21  88 CALM      30.27R
IDAHO FALLS    SUNNY     34  29  82 N5        30.21R
SALMON         SUNNY     30  25  80 CALM      30.27R
BOISE          CLEAR     41  31  67 SE9       30.18R
SPOKANE        PTCLDY    39  33  79 E6        30.21S
$$

REGIONAL REPORTS...ALBERTA

CITY           SKY/WX    TMP DP  RH WIND       PRES   REMARKS
EDMONTON       MOSUNNY   41  30  65 S10       30.14S
CALGARY        MOSUNNY   41  28  60 S8        30.19F
MEDICINE HAT   SUNNY     43  32  65 NE6       30.21F
$$

REGIONAL REPORTS...SASKATCHEWAN

CITY           SKY/WX    TMP DP  RH WIND       PRES   REMARKS
SWIFT CURRENT  SUNNY     45  30  57 N8        30.20R
REGINA         SUNNY     46  34  61 NW9       30.18R
SASKATOON      PTSUNNY   41  34  75 NW9       30.22R
$$



USA.gov is the U.S. government's official web portal to all federal, state and local government web resources and services.